Location: El Para�so
(10.4896°N, 66.9245°W)
Time: 03:52:21
(UTC+00:00)

Cosmos 1933 - Pass Details

Date: 08 August 2020
Orbit: 547 x 563 km, 82.5° (Epoch: 21 September)

Event Time Altitude Azimuth Distance (km) Brightness Sun altitude
Rises 23:46:08 0° 5° (N) 2,743 7.1 -14.3°
Reaches altitude 10° 23:48:22 10° 11° (N) 1,848 6.1 -14.8°
Maximum altitude 23:52:17 47° 85° (E) 750 3.6 -15.7°
Enters shadow 23:54:26 24° 147° (SSE) 1,189 4.6 -16.2°
